FW6247 Weather Reports


Display with metric or nautical units.
time (UTC)temp
F
wind
direction
speed
MPH
gust
MPH
rain 1hr
in
rain 24hr
in
rain mn
in
humidity
%
barometer
mb
20260902231534 62 193 6.0 14.0 0.00 0.00 0.00 69 1009.8
20260902230035 62 195 6.0 15.0 0.00 0.00 0.00 69 1009.7
20260902223036 62 200 3.0 9.0 0.00 0.00 0.00 71 1009.6
20260902221533 62 191 3.0 7.0 0.00 0.00 0.00 71 1009.7
20260902214533 60 167 1.0 5.0 0.00 0.00 0.00 73 1009.8
20260902211536 60 187 5.0 11.0 0.00 0.00 0.00 70 1010.1
20260902210036 60 186 5.0 11.0 0.00 0.00 0.00 69 1010.1
20260902204607 61 186 6.0 11.0 0.00 0.00 0.00 67 1009.9
20260902203105 61 194 6.0 15.0 0.00 0.00 0.00 67 1009.8
20260902201637 61 178 6.0 12.0 0.00 0.00 0.00 69 1009.9
20260902200035 61 192 4.0 11.0 0.00 0.00 0.00 65 1010.0
20260902194529 63 204 9.0 17.0 0.00 0.00 0.00 59 1009.8
20260902193107 65 200 10.0 21.0 0.00 0.00 0.00 56 1009.6
20260902191537 66 191 8.0 17.0 0.00 0.00 0.00 54 1009.3
20260902190038 67 185 3.0 12.0 0.00 0.00 0.00 54 1009.1
20260902184535 68 43 2.0 5.0 0.00 0.00 0.00 53 1009.1
20260902183037 68 200 1.0 4.0 0.00 0.00 0.00 56 1009.2
20260902181537 66 111 0.0 7.0 0.00 0.00 0.00 58 1009.5
20260902180036 65 56 1.0 5.0 0.00 0.00 0.00 60 1009.6
20260902174535 65 356 0.0 5.0 0.00 0.00 0.00 63 1009.8
20260902173038 65 352 0.0 4.0 0.00 0.00 0.00 64 1010.1
20260902171538 63 28 1.0 5.0 0.00 0.00 0.00 68 1010.3
20260902170035 61 20 0.0 6.0 0.00 0.00 0.00 72 1010.4
20260902164609 61 339 0.0 2.0 0.00 0.00 0.00 75 1010.5
20260902163030 60 17 0.0 1.0 0.00 0.00 0.00 76 1010.7
20260902161537 58 67 0.0 3.0 0.00 0.00 0.00 80 1010.8
20260902160036 58 72 0.0 3.0 0.00 0.00 0.00 84 1011.0
20260902154538 57 67 0.0 3.0 0.00 0.00 0.00 88 1011.2
20260902153038 55 123 0.0 2.0 0.00 0.00 0.00 91 1011.3
20260902151537 54 157 0.0 0.0 0.00 0.00 0.00 92 1011.4
20260902150035 51 157 0.0 1.0 0.00 0.00 0.00 93 1011.5
20260902143038 48 188 2.0 5.0 0.00 0.00 0.00 93 1011.6
20260902141537 47 190 2.0 5.0 0.00 0.00 0.00 93 1011.6
20260902140037 46 168 1.0 4.0 0.00 0.00 0.00 92 1011.6
20260902134537 46 160 2.0 6.0 0.00 0.00 0.00 92 1011.6
20260902133039 46 176 3.0 7.0 0.00 0.00 0.00 92 1011.7
20260902131539 45 168 3.0 4.0 0.00 0.00 0.00 92 1011.9
20260902130038 46 207 0.0 3.0 0.00 0.00 0.00 91 1011.9
20260902124539 46 166 2.0 4.0 0.00 0.00 0.00 91 1012.0
20260902120035 46 180 0.0 1.0 0.00 0.00 0.00 90 1012.0
20260902114536 46 180 0.0 3.0 0.00 0.00 0.00 90 1012.0
20260902111536 47 157 0.0 3.0 0.00 0.00 0.00 89 1012.0
20260902110036 48 148 0.0 3.0 0.00 0.00 0.00 89 1012.1
20260902104539 48 148 0.0 2.0 0.00 0.00 0.00 88 1012.0
20260902103038 48 173 1.0 3.0 0.00 0.00 0.00 88 1011.9
20260902101537 49 185 2.0 3.0 0.00 0.00 0.00 87 1012.0
20260902100037 50 181 2.0 4.0 0.00 0.00 0.00 87 1012.1
20260902094536 51 197 0.0 3.0 0.00 0.00 0.00 87 1012.1
20260902093035 51 161 1.0 6.0 0.00 0.00 0.00 88 1012.1
20260902091537 51 154 3.0 7.0 0.00 0.00 0.00 87 1012.1
20260902090038 51 179 2.0 4.0 0.00 0.00 0.00 87 1012.1
20260902084536 51 360 0.0 0.0 0.00 0.00 0.00 87 1012.2
20260902080036 51 187 1.0 4.0 0.00 0.00 0.00 84 1012.2
20260902074535 51 176 3.0 4.0 0.00 0.00 0.00 82 1012.3
20260902073036 52 181 1.0 4.0 0.00 0.00 0.00 81 1012.4
20260902071537 53 186 3.0 7.0 0.00 0.00 0.00 81 1012.5
20260902070035 54 297 1.0 9.0 0.00 0.00 0.00 79 1012.5
20260902064538 55 90 0.0 2.0 0.00 0.00 0.00 77 1012.6
20260902061542 56 294 1.0 5.0 0.00 0.00 0.00 74 1012.6
20260902060038 57 344 0.0 6.0 0.00 0.00 0.00 71 1012.2
20260902053036 59 294 1.0 6.0 0.00 0.00 0.00 67 1012.7
20260902051538 59 337 0.0 7.0 0.00 0.00 0.00 65 1012.3
20260902050034 60 301 4.0 13.0 0.00 0.00 0.00 65 1012.1
20260902044539 59 298 4.0 11.0 0.00 0.00 0.00 66 1012.0
20260902043035 59 306 3.0 11.0 0.00 0.00 0.00 65 1011.9
20260902041542 61 295 5.0 13.0 0.00 0.00 0.00 63 1011.6
20260902040034 61 300 5.0 16.0 0.00 0.00 0.00 62 1011.4
20260902034532 61 300 6.0 18.0 0.00 0.00 0.00 61 1011.3
20260902031537 62 299 8.0 19.0 0.00 0.00 0.00 60 1010.6
20260902030035 62 295 7.0 18.0 0.00 0.00 0.00 59 1010.6
20260902024531 63 295 7.0 16.0 0.00 0.00 0.00 58 1010.7
20260902023030 63 294 7.0 19.0 0.00 0.00 0.00 58 1010.6
20260902014607 65 294 10.0 24.0 0.00 0.00 0.00 56 1010.1
20260902013038 66 303 5.0 19.0 0.00 0.00 0.00 57 1010.1
20260902010030 67 302 7.0 19.0 0.00 0.00 0.00 55 1009.4
20260902004642 68 305 7.0 22.0 0.00 0.00 0.00 55 1009.1
20260902003034 68 305 7.0 21.0 0.00 0.00 0.00 56 1009.3
20260902001532 69 302 6.0 18.0 0.00 0.00 0.00 55 1009.3
20260902000032 69 308 5.0 15.0 0.00 0.00 0.00 55 1009.4
20260901234607 69 309 6.0 18.0 0.00 0.00 0.00 55 1009.4
20260901233035 68 306 5.0 16.0 0.00 0.00 0.00 56 1009.5